When you browse on this site, cookies collect data to enhance your experience and personalize the content and advertising you see.
Visit our Privacy Policy to learn more. By continuing to use the site, you agree to this use of cookies and data.
  • In Czech Republic
  • List of Countries
  • For 7 days
  • Water Temperature
  • Satellite Maps
  • Weather Map
  • Weather Widgets
  • user-avatar
    Login

    Hourly Weather Puebla

    Today, 20 June, Thursday

    Time Temperature Precipitation Wind Pressure Humidity
    00:00 +18°C° 0 mm 1 mps 589 mmHg 81%
    01:00 +16°C° 0 mm 1 mps 589 mmHg 81%
    02:00 +16°C° 0 mm 1 mps 588 mmHg 82%
    03:00 +16°C° 0 mm 1 mps 588 mmHg 81%
    04:00 +16°C° 0 mm 1 mps 588 mmHg 80%
    05:00 +15°C° 0 mm 1 mps 588 mmHg 79%
    06:00 +18°C° 0 mm 1 mps 589 mmHg 72%
    07:00 +21°C° 0 mm 1 mps 590 mmHg 64%
    08:00 +21°C° 0 mm 0 mps 591 mmHg 56%
    09:00 +24°C° 0 mm 1 mps 591 mmHg 51%
    10:00 +25°C° 0 mm 2 mps 592 mmHg 46%
    11:00 +27°C° 0 mm 2 mps 592 mmHg 41%
    12:00 +27°C° 0 mm 3 mps 592 mmHg 41%
    13:00 +27°C° 0 mm 3 mps 591 mmHg 41%
    14:00 +27°C° 0 mm 3 mps 591 mmHg 41%
    15:00 +26°C° 0.1 mm 3 mps 590 mmHg 47%
    16:00 +25°C° 0.1 mm 3 mps 590 mmHg 53%
    17:00 +25°C° 0.1 mm 3 mps 589 mmHg 59%
    18:00 +23°C° 0.1 mm 2 mps 589 mmHg 63%
    19:00 +21°C° 0.1 mm 2 mps 589 mmHg 68%
    20:00 +20°C° 0.1 mm 1 mps 589 mmHg 72%
    21:00 +20°C° 0.2 mm 1 mps 589 mmHg 73%
    22:00 +19°C° 0.2 mm 1 mps 589 mmHg 74%
    23:00 +19°C° 0.2 mm 1 mps 589 mmHg 76%

    Tomorrow, 21 June, Friday

    Time Temperature Precipitation Wind Pressure Humidity
    00:00 +18°C° 0 mm 1 mps 589 mmHg 75%
    01:00 +18°C° 0 mm 1 mps 588 mmHg 75%
    02:00 +18°C° 0 mm 1 mps 588 mmHg 75%
    03:00 +16°C° 0 mm 1 mps 588 mmHg 75%
    04:00 +16°C° 0 mm 1 mps 588 mmHg 76%
    05:00 +16°C° 0 mm 1 mps 588 mmHg 76%
    06:00 +19°C° 0 mm 1 mps 589 mmHg 70%
    07:00 +19°C° 0 mm 0 mps 590 mmHg 64%
    08:00 +21°C° 0 mm 0 mps 591 mmHg 57%
    09:00 +24°C° 0 mm 1 mps 592 mmHg 50%
    10:00 +26°C° 0 mm 1 mps 592 mmHg 43%
    11:00 +27°C° 0 mm 2 mps 592 mmHg 35%
    12:00 +27°C° 0 mm 2 mps 592 mmHg 35%
    13:00 +27°C° 0 mm 3 mps 591 mmHg 35%
    14:00 +28°C° 0 mm 3 mps 591 mmHg 35%
    15:00 +27°C° 0 mm 4 mps 591 mmHg 41%
    16:00 +26°C° 0 mm 4 mps 590 mmHg 47%
    17:00 +25°C° 0 mm 4 mps 590 mmHg 54%
    18:00 +22°C° 0 mm 3 mps 590 mmHg 58%
    19:00 +21°C° 0 mm 2 mps 590 mmHg 63%
    20:00 +20°C° 0 mm 1 mps 590 mmHg 68%
    21:00 +20°C° 0 mm 1 mps 590 mmHg 69%
    22:00 +19°C° 0 mm 1 mps 590 mmHg 70%
    23:00 +17°C° 0 mm 0 mps 590 mmHg 71%

    Day after tomorrow, 22 June, Saturday

    Time Temperature Precipitation Wind Pressure Humidity
    00:00 +17°C° 0.1 mm 0 mps 589 mmHg 73%
    01:00 +16°C° 0.1 mm 0 mps 589 mmHg 76%
    02:00 +16°C° 0.1 mm 0 mps 589 mmHg 78%
    03:00 +15°C° 0 mm 0 mps 589 mmHg 79%
    04:00 +15°C° 0 mm 0 mps 589 mmHg 80%
    05:00 +15°C° 0 mm 0 mps 589 mmHg 81%
    06:00 +17°C° 0 mm 0 mps 589 mmHg 75%
    07:00 +18°C° 0 mm 0 mps 590 mmHg 69%
    08:00 +20°C° 0 mm 0 mps 591 mmHg 63%
    09:00 +23°C° 0 mm 1 mps 592 mmHg 58%
    10:00 +25°C° 0 mm 2 mps 592 mmHg 52%
    11:00 +26°C° 0 mm 2 mps 592 mmHg 47%
    12:00 +26°C° 0.2 mm 3 mps 592 mmHg 48%
    13:00 +27°C° 0.2 mm 3 mps 591 mmHg 48%
    14:00 +27°C° 0.2 mm 4 mps 591 mmHg 49%
    15:00 +26°C° 1.1 mm 3 mps 591 mmHg 55%
    16:00 +24°C° 1.1 mm 3 mps 590 mmHg 60%
    17:00 +23°C° 1.1 mm 2 mps 590 mmHg 66%
    18:00 +21°C° 1.5 mm 2 mps 590 mmHg 70%
    19:00 +21°C° 1.5 mm 1 mps 590 mmHg 74%
    20:00 +20°C° 1.5 mm 1 mps 590 mmHg 78%
    21:00 +20°C° 0.9 mm 1 mps 590 mmHg 79%
    22:00 +19°C° 0.9 mm 1 mps 590 mmHg 81%
    23:00 +19°C° 0.9 mm 1 mps 590 mmHg 82%

    23 June, Sunday

    Time Temperature Precipitation Wind Pressure Humidity
    00:00 +18°C° 0.3 mm 1 mps 589 mmHg 83%
    01:00 +18°C° 0.3 mm 1 mps 589 mmHg 83%
    02:00 +16°C° 0.3 mm 1 mps 589 mmHg 83%
    03:00 +16°C° 0 mm 1 mps 588 mmHg 83%
    04:00 +16°C° 0 mm 1 mps 588 mmHg 84%
    05:00 +15°C° 0 mm 0 mps 588 mmHg 84%
    06:00 +16°C° 0 mm 0 mps 589 mmHg 77%
    07:00 +20°C° 0 mm 1 mps 590 mmHg 70%
    08:00 +22°C° 0 mm 1 mps 591 mmHg 64%
    09:00 +23°C° 0 mm 1 mps 591 mmHg 58%
    10:00 +24°C° 0 mm 1 mps 591 mmHg 53%
    11:00 +26°C° 0 mm 2 mps 591 mmHg 47%
    12:00 +26°C° 0.2 mm 2 mps 591 mmHg 48%
    13:00 +26°C° 0.2 mm 3 mps 590 mmHg 49%
    14:00 +26°C° 0.2 mm 3 mps 590 mmHg 50%
    15:00 +25°C° 0.6 mm 3 mps 590 mmHg 55%
    16:00 +25°C° 0.6 mm 3 mps 589 mmHg 60%
    17:00 +24°C° 0.6 mm 3 mps 589 mmHg 65%
    18:00 +21°C° 0.9 mm 3 mps 589 mmHg 69%
    19:00 +20°C° 0.9 mm 2 mps 589 mmHg 74%
    20:00 +20°C° 0.9 mm 1 mps 589 mmHg 79%
    21:00 +19°C° 1.1 mm 1 mps 589 mmHg 84%
    22:00 +18°C° 1.1 mm 1 mps 588 mmHg 89%
    23:00 +17°C° 1.1 mm 2 mps 588 mmHg 94%

    24 June, Monday

    Time Temperature Precipitation Wind Pressure Humidity
    00:00 +18°C° 0.6 mm 1 mps 588 mmHg 92%
    01:00 +18°C° 0.6 mm 1 mps 588 mmHg 91%
    02:00 +18°C° 0.6 mm 1 mps 588 mmHg 89%
    03:00 +15°C° 0.1 mm 0 mps 588 mmHg 89%
    04:00 +15°C° 0.1 mm 0 mps 588 mmHg 88%
    05:00 +15°C° 0.1 mm 0 mps 588 mmHg 88%
    06:00 +16°C° 0 mm 0 mps 588 mmHg 82%
    07:00 +20°C° 0 mm 1 mps 589 mmHg 77%
    08:00 +21°C° 0 mm 1 mps 590 mmHg 71%
    09:00 +21°C° 0.1 mm 2 mps 590 mmHg 66%
    10:00 +24°C° 0.1 mm 2 mps 590 mmHg 60%
    11:00 +25°C° 0.1 mm 3 mps 591 mmHg 55%
    12:00 +25°C° 0.3 mm 3 mps 590 mmHg 55%
    13:00 +25°C° 0.3 mm 4 mps 590 mmHg 55%
    14:00 +25°C° 0.3 mm 4 mps 589 mmHg 55%
    15:00 +23°C° 1 mm 4 mps 589 mmHg 60%
    16:00 +24°C° 1 mm 3 mps 588 mmHg 64%
    17:00 +22°C° 1 mm 3 mps 588 mmHg 69%
    18:00 +21°C° 1.3 mm 2 mps 588 mmHg 73%
    19:00 +20°C° 1.3 mm 2 mps 588 mmHg 76%
    20:00 +20°C° 1.3 mm 1 mps 588 mmHg 80%
    21:00 +19°C° 1.4 mm 1 mps 588 mmHg 83%
    22:00 +18°C° 1.4 mm 2 mps 588 mmHg 87%
    23:00 +17°C° 1.4 mm 2 mps 588 mmHg 90%

    25 June, Tuesday

    Time Temperature Precipitation Wind Pressure Humidity
    00:00 +17°C° 2.2 mm 2 mps 588 mmHg 91%
    01:00 +18°C° 2.2 mm 1 mps 588 mmHg 92%
    02:00 +18°C° 2.2 mm 1 mps 587 mmHg 92%
    03:00 +16°C° 1.4 mm 1 mps 588 mmHg 92%
    04:00 +16°C° 1.4 mm 1 mps 588 mmHg 92%
    05:00 +16°C° 1.4 mm 1 mps 588 mmHg 92%
    06:00 +16°C° 1.5 mm 1 mps 588 mmHg 91%
    07:00 +16°C° 1.5 mm 2 mps 588 mmHg 90%
    08:00 +16°C° 1.5 mm 2 mps 589 mmHg 89%
    09:00 +17°C° 0.7 mm 2 mps 589 mmHg 85%
    10:00 +18°C° 0.7 mm 2 mps 589 mmHg 80%
    11:00 +20°C° 0.7 mm 1 mps 590 mmHg 75%
    12:00 +21°C° 0.3 mm 1 mps 590 mmHg 70%
    13:00 +22°C° 0.3 mm 1 mps 590 mmHg 65%
    14:00 +24°C° 0.3 mm 1 mps 590 mmHg 60%
    15:00 +22°C° 1.4 mm 1 mps 590 mmHg 67%
    16:00 +21°C° 1.4 mm 1 mps 589 mmHg 73%
    17:00 +20°C° 1.4 mm 1 mps 589 mmHg 80%
    18:00 +20°C° 0.9 mm 1 mps 589 mmHg 82%
    19:00 +19°C° 0.9 mm 1 mps 589 mmHg 85%
    20:00 +18°C° 0.9 mm 1 mps 589 mmHg 87%
    21:00 +18°C° 0.4 mm 1 mps 590 mmHg 87%
    22:00 +18°C° 0.4 mm 1 mps 590 mmHg 87%
    23:00 +18°C° 0.4 mm 1 mps 590 mmHg 86%
    Show more